| time (UTC) | temp F | wind direction | speed MPH | gust MPH | rain 1hr in | rain 24hr in | rain mn in | humidity % | barometer mb |
| 20260901110805 | 44 | 280 | 4.0 | 6.0 | 0.00 | 0.00 | 0.00 | 96 | 1002.2 |
| 20260901110305 | 44 | 277 | 4.0 | 8.0 | 0.00 | 0.00 | 0.00 | 97 | 1002.2 |
| 20260901100804 | 45 | 272 | 3.0 | 5.0 | 0.00 | 0.00 | 0.00 | 95 | 1001.9 |
| 20260901100305 | 45 | 270 | 3.0 | 6.0 | 0.00 | 0.00 | 0.00 | 95 | 1001.9 |
| 20260901090805 | 45 | 273 | 3.0 | 3.0 | 0.00 | 0.00 | 0.00 | 93 | 1001.5 |
| 20260901090305 | 46 | 272 | 2.0 | 5.0 | 0.00 | 0.00 | 0.00 | 93 | 1001.4 |
| 20260901080805 | 46 | 250 | 2.0 | 3.0 | 0.00 | 0.00 | 0.00 | 91 | 1001.1 |
| 20260901080304 | 46 | 349 | 2.0 | 3.0 | 0.00 | 0.00 | 0.00 | 91 | 1001.1 |
| 20260901070812 | 47 | 232 | 0.0 | 2.0 | 0.00 | 0.00 | 0.00 | 87 | 1000.5 |
| 20260901060805 | 48 | 36 | 2.0 | 3.0 | 0.00 | 0.00 | 0.00 | 83 | 999.9 |
| 20260901060305 | 48 | 14 | 3.0 | 6.0 | 0.00 | 0.00 | 0.00 | 81 | 999.9 |
| 20260901050804 | 49 | 314 | 3.0 | 6.0 | 0.00 | 0.00 | 0.00 | 82 | 999.3 |
| 20260901050304 | 49 | 291 | 3.0 | 6.0 | 0.00 | 0.00 | 0.00 | 83 | 999.2 |
| 20260901040804 | 51 | 167 | 3.0 | 5.0 | 0.00 | 0.00 | 0.00 | 79 | 998.7 |
| 20260901040304 | 51 | 323 | 2.0 | 5.0 | 0.00 | 0.00 | 0.00 | 79 | 998.7 |
| 20260901030804 | 53 | 46 | 1.0 | 3.0 | 0.00 | 0.00 | 0.00 | 74 | 998.3 |
| 20260901030305 | 53 | 75 | 1.0 | 5.0 | 0.00 | 0.00 | 0.00 | 73 | 998.2 |
| 20260901020804 | 54 | 78 | 1.0 | 2.0 | 0.00 | 0.00 | 0.00 | 74 | 997.9 |
| 20260901010804 | 54 | 36 | 1.0 | 2.0 | 0.00 | 0.00 | 0.00 | 76 | 998.2 |
| 20260901010305 | 54 | 67 | 0.0 | 3.0 | 0.00 | 0.00 | 0.00 | 76 | 998.2 |
| 20260901000804 | 55 | 8 | 0.0 | 2.0 | 0.00 | 0.00 | 0.00 | 73 | 998.5 |
| 20260901000305 | 55 | 90 | 1.0 | 3.0 | 0.00 | 0.00 | 0.00 | 74 | 998.5 |
| 20260831230804 | 54 | 89 | 1.0 | 3.0 | 0.00 | 0.00 | 0.00 | 76 | 998.9 |
| 20260831230305 | 54 | 4 | 0.0 | 3.0 | 0.00 | 0.00 | 0.00 | 75 | 999.0 |
| 20260831220804 | 54 | 110 | 0.0 | 2.0 | 0.00 | 0.00 | 0.00 | 76 | 999.3 |
| 20260831220304 | 54 | 3 | 1.0 | 6.0 | 0.00 | 0.00 | 0.00 | 74 | 999.3 |
| 20260831210805 | 53 | 37 | 1.0 | 2.0 | 0.00 | 0.00 | 0.00 | 78 | 999.8 |
| 20260831210304 | 53 | 59 | 0.0 | 5.0 | 0.00 | 0.00 | 0.00 | 77 | 999.8 |
| 20260831200804 | 52 | 57 | 1.0 | 2.0 | 0.00 | 0.00 | 0.00 | 79 | 1000.3 |
| 20260831200305 | 52 | 32 | 1.0 | 6.0 | 0.00 | 0.00 | 0.00 | 79 | 1000.3 |
| 20260831190805 | 50 | 346 | 2.0 | 5.0 | 0.00 | 0.00 | 0.00 | 83 | 1001.0 |
| 20260831180305 | 46 | 268 | 3.0 | 6.0 | 0.00 | 0.00 | 0.00 | 91 | 1001.7 |
| 20260831170804 | 44 | 358 | 2.0 | 3.0 | 0.00 | 0.00 | 0.00 | 95 | 1002.2 |
| 20260831170304 | 44 | 333 | 2.0 | 6.0 | 0.00 | 0.00 | 0.00 | 95 | 1002.3 |
| 20260831160805 | 43 | 325 | 3.0 | 5.0 | 0.00 | 0.00 | 0.00 | 96 | 1002.6 |
| 20260831160304 | 43 | 281 | 5.0 | 6.0 | 0.00 | 0.00 | 0.00 | 97 | 1002.7 |
| 20260831150804 | 38 | 279 | 3.0 | 5.0 | 0.00 | 0.00 | 0.00 | 99 | 1003.4 |
| 20260831150304 | 38 | 296 | 3.0 | 5.0 | 0.00 | 0.00 | 0.00 | 99 | 1003.5 |
| 20260831140804 | 38 | 286 | 2.0 | 5.0 | 0.00 | 0.01 | 0.00 | 98 | 1004.0 |
| 20260831140305 | 38 | 277 | 3.0 | 7.0 | 0.00 | 0.01 | 0.00 | 98 | 1004.1 |
| 20260831130804 | 35 | 279 | 3.0 | 5.0 | 0.00 | 0.02 | 0.00 | 98 | 1004.5 |
| 20260831130304 | 35 | 158 | 4.0 | 6.0 | 0.00 | 0.02 | 0.00 | 98 | 1004.6 |
| 20260831120303 | 31 | 264 | 2.0 | 3.0 | 0.00 | 0.04 | 0.00 | 98 | 1005.5 |